Date String (YYYY-MM-DD hh:mm:ss) UTC,Instrument flags,absolute air pressure of the measurement (hPa),sample flow rate (lpm),inlet stack bypass flow (lpm),air temperature of the measurement (°C),ambient temperature measured by the external sensor (°C),aerosol sample conditioner tube jacket temperature (°C),OPC LED temperature (°C),internal box temperature (°C),relative humidity of the measurement (%),span deviation,mass concentration of particles derived from Lorenz-Mie calculation of OPC scattering (μg/m³),mass concentration of particles derived from Lorenz-Mie calculation of OPC scattering (μg/m³),mass concentration of particles derived from Lorenz-Mie calculation of OPC scattering (μg/m³)
DateTimeUTC,F1_M11,P_M11,Q1_M11,Q2_M11,T1_M11,T2_M11,T3_M11,T4_M11,T5_M11,U1_M11,ZSPAN_M11,X0_M11,X2_M11,X1_M11
2023-10-23 22:00:00,SystemResetWarning,0820.8,5.00,000.00,028.4,027.2,000.0,036.6,030.3,13.2,0000.0,0015.34,0005.90,0004.69
2023-10-23 22:01:00,SystemResetWarning,0820.8,4.99,000.00,028.4,025.7,000.0,036.6,030.1,13.2,0000.0,0015.90,0005.91,0004.71
2023-10-23 22:02:00,SystemResetWarning,0820.8,5.00,000.00,028.3,024.4,000.0,036.5,029.9,13.1,0000.0,0015.53,0005.90,0004.71
2023-10-23 22:03:00,SystemResetWarning,0820.8,5.01,000.00,028.2,024.5,000.0,036.5,029.8,13.1,0000.0,0015.05,0005.96,0004.73
2023-10-23 22:04:00,SystemResetWarning,0820.8,5.00,000.00,028.1,024.8,000.0,036.5,029.6,13.3,0000.0,0015.74,0005.97,0004.74
2023-10-23 22:05:00,SystemResetWarning,0820.8,5.00,000.00,028.1,025.3,000.0,036.5,029.7,13.7,0000.0,0017.11,0005.91,0004.75
2023-10-23 22:06:00,SystemResetWarning,0820.8,5.01,000.00,028.1,025.7,000.0,036.5,029.8,13.6,0000.5,0018.54,0005.88,0004.75
2023-10-23 22:07:00,SystemResetWarning,0820.8,5.00,000.00,028.2,026.2,000.0,036.5,029.9,13.6,0002.4,0018.87,0005.91,0004.74
2023-10-23 22:08:00,SystemResetWarning,0820.7,5.00,000.00,028.2,026.6,000.0,036.5,030.0,13.5,0002.6,0019.08,0005.83,0004.72
2023-10-23 22:09:00,SystemResetWarning,0820.8,5.00,000.00,028.2,026.9,000.0,036.6,030.1,12.9,0002.3,0019.20,0005.80,0004.71
2023-10-23 22:10:00,SystemResetWarning,0820.8,5.01,000.00,028.3,027.1,000.0,036.6,030.2,12.7,0002.6,0019.07,0005.74,0004.70
2023-10-23 22:11:00,SystemResetWarning,0820.7,4.99,000.00,028.3,026.7,000.0,036.6,030.2,12.6,0002.1,0018.79,0005.72,0004.68
2023-10-23 22:12:00,SystemResetWarning,0820.7,4.99,000.00,028.3,025.0,000.0,036.6,030.0,12.6,0002.5,0018.61,0005.75,0004.66
2023-10-23 22:13:00,SystemResetWarning,0820.8,5.01,000.00,028.2,024.2,000.0,036.5,029.8,12.5,0002.5,0018.72,0005.81,0004.66
2023-10-23 22:14:00,SystemResetWarning,0820.8,5.00,000.00,028.1,024.5,000.0,036.5,029.7,12.5,0002.4,0018.45,0005.81,0004.66
2023-10-23 22:15:00,SystemResetWarning,0820.8,5.00,000.00,028.1,024.9,000.0,036.5,029.6,12.5,0002.4,0018.19,0005.80,0004.66
2023-10-23 22:16:00,SystemResetWarning,0820.8,5.00,000.00,028.0,025.3,000.0,036.5,029.7,12.6,0002.6,0016.88,0005.85,0004.66
2023-10-23 22:17:00,SystemResetWarning,0820.8,5.01,000.00,028.1,025.8,000.0,036.5,029.7,12.8,0002.5,0015.48,0005.86,0004.63
2023-10-23 22:18:00,SystemResetWarning,0820.8,5.01,000.00,028.1,026.2,000.0,036.5,029.9,12.7,0002.3,0014.84,0005.79,0004.61
2023-10-23 22:19:00,SystemResetWarning,0820.8,5.00,000.00,028.2,026.5,000.0,036.5,030.0,12.8,0001.8,0015.23,0005.82,0004.60
2023-10-23 22:20:00,SystemResetWarning,0820.8,5.00,000.00,028.2,026.8,000.0,036.6,030.0,12.6,0000.0,0016.00,0005.84,0004.60
2023-10-23 22:21:00,SystemResetWarning,0820.8,5.00,000.00,028.3,027.1,000.0,036.6,030.1,12.7,0000.2,0016.90,0005.91,0004.60
2023-10-23 22:22:00,SystemResetWarning,0820.8,5.00,000.00,028.3,027.0,000.0,036.6,030.2,13.0,0000.0,0017.12,0006.00,0004.62
2023-10-23 22:23:00,SystemResetWarning,0820.8,4.98,000.00,028.3,025.3,000.0,036.6,030.0,13.0,0000.5,0016.70,0005.96,0004.62
2023-10-23 22:24:00,SystemResetWarning,0820.8,5.02,000.00,028.2,024.2,000.0,036.5,029.8,13.0,0000.1,0017.26,0005.88,0004.60
2023-10-23 22:25:00,SystemResetWarning,0820.8,5.00,000.00,028.1,024.4,000.0,036.4,029.7,13.1,0000.4,0018.52,0005.84,0004.58
2023-10-23 22:26:00,SystemResetWarning,0820.8,4.99,000.00,028.0,024.7,000.0,036.4,029.5,13.1,0000.9,0018.27,0005.83,0004.55
2023-10-23 22:27:00,SystemResetWarning,0820.8,5.00,000.00,028.0,025.2,000.0,036.5,029.6,13.4,0000.8,0017.21,0005.77,0004.53
2023-10-23 22:28:00,SystemResetWarning,0820.8,5.01,000.00,028.0,025.6,000.0,036.5,029.7,13.7,0001.3,0017.64,0005.76,0004.52
2023-10-23 22:29:00,SystemResetWarning,0820.8,5.00,000.00,028.1,026.0,000.0,036.5,029.8,13.8,0001.8,0017.88,0005.76,0004.52
2023-10-23 22:30:00,SystemResetWarning,0820.9,5.00,000.00,028.1,026.4,000.0,036.5,029.9,13.8,0002.6,0017.70,0005.72,0004.52
2023-10-23 22:31:00,SystemResetWarning,0820.8,5.00,000.00,028.1,026.7,000.0,036.5,030.0,13.8,0003.2,0016.66,0005.68,0004.51
2023-10-23 22:32:00,SystemResetWarning,0820.8,5.00,000.00,028.2,027.0,000.0,036.5,030.1,13.7,0001.8,0015.93,0005.58,0004.47
2023-10-23 22:33:00,SystemResetWarning,0820.8,5.00,000.00,028.3,027.2,000.0,036.6,030.1,13.6,0003.0,0016.12,0005.52,0004.44
2023-10-23 22:34:00,SystemResetWarning,0820.8,4.99,000.00,028.3,026.7,000.0,036.6,030.2,13.4,0000.1,0017.14,0005.51,0004.43
2023-10-23 22:35:00,SystemResetWarning,0820.8,5.00,000.00,028.2,024.8,000.0,036.5,029.9,13.4,0000.0,0016.92,0005.49,0004.42
2023-10-23 22:36:00,SystemResetWarning,0820.8,5.01,000.00,028.2,024.2,000.0,036.5,029.8,13.4,0000.0,0015.76,0005.47,0004.42
2023-10-23 22:37:00,SystemResetWarning,0820.8,5.01,000.00,028.1,024.4,000.0,036.4,029.7,13.4,0000.0,0015.43,0005.41,0004.39
2023-10-23 22:38:00,SystemResetWarning,0820.8,5.00,000.00,028.0,024.8,000.0,036.4,029.6,13.4,0000.0,0015.51,0005.39,0004.38
2023-10-23 22:39:00,SystemResetWarning,0820.8,5.01,000.00,028.0,025.3,000.0,036.5,029.6,13.4,0000.0,0014.85,0005.37,0004.36
2023-10-23 22:40:00,SystemResetWarning,0820.8,5.00,000.00,028.0,025.7,000.0,036.5,029.7,13.4,0000.0,0014.70,0005.35,0004.35
2023-10-23 22:41:00,SystemResetWarning,0820.8,5.00,000.00,028.1,026.1,000.0,036.5,029.8,13.8,0000.0,0015.91,0005.35,0004.34
2023-10-23 22:42:00,SystemResetWarning,0820.8,4.99,000.00,028.1,026.4,000.0,036.5,029.9,13.9,0000.0,0015.89,0005.36,0004.32
2023-10-23 22:43:00,SystemResetWarning,0820.8,5.00,000.00,028.2,026.7,000.0,036.5,030.0,14.0,0000.0,0015.96,0005.40,0004.32
2023-10-23 22:44:00,SystemResetWarning,0820.8,5.01,000.00,028.2,027.0,000.0,036.5,030.1,13.9,0000.0,0015.70,0005.44,0004.32
2023-10-23 22:45:00,SystemResetWarning,0820.8,5.01,000.00,028.3,027.2,000.0,036.6,030.1,13.9,0000.0,0016.31,0005.42,0004.31
2023-10-23 22:46:00,SystemResetWarning,0820.8,4.99,000.00,028.3,027.3,000.0,036.6,030.2,13.8,0000.0,0015.26,0005.38,0004.30
2023-10-23 22:47:00,SystemResetWarning,0820.8,4.98,000.00,028.4,026.4,000.0,036.6,030.2,13.6,0000.0,0015.63,0005.37,0004.30
2023-10-23 22:48:00,SystemResetWarning,0820.8,5.02,000.00,028.3,024.6,000.0,036.5,029.9,13.6,0000.0,0015.71,0005.35,0004.30
2023-10-23 22:49:00,SystemResetWarning,0820.8,5.01,000.00,028.2,024.2,000.0,036.5,029.8,13.7,0000.0,0015.57,0005.33,0004.31
2023-10-23 22:50:00,SystemResetWarning,0820.8,4.99,000.00,028.1,024.5,000.0,036.5,029.7,13.8,0000.0,0015.76,0005.37,0004.31
2023-10-23 22:51:00,SystemResetWarning,0820.8,4.99,000.00,028.1,024.9,000.0,036.5,029.6,13.8,0000.0,0015.84,0005.38,0004.30
2023-10-23 22:52:00,SystemResetWarning,0820.8,5.01,000.00,028.1,025.4,000.0,036.5,029.7,14.0,0000.0,0015.35,0005.40,0004.31
2023-10-23 22:53:00,SystemResetWarning,0820.8,5.00,000.00,028.1,025.8,000.0,036.5,029.8,13.9,0000.0,0015.73,0005.49,0004.32
2023-10-23 22:54:00,SystemResetWarning,0820.8,4.99,000.00,028.1,026.2,000.0,036.5,029.9,13.8,0000.4,0016.44,0005.47,0004.32
2023-10-23 22:55:00,SystemResetWarning,0820.9,5.00,000.00,028.2,026.5,000.0,036.5,030.0,13.7,0002.8,0016.36,0005.42,0004.33
2023-10-23 22:56:00,SystemResetWarning,0820.9,5.00,000.00,028.2,026.8,000.0,036.6,030.0,13.8,0000.0,0015.30,0005.44,0004.34
2023-10-23 22:57:00,SystemResetWarning,0820.9,5.00,000.00,028.3,027.0,000.0,036.6,030.1,13.8,0000.0,0015.32,0005.50,0004.35
2023-10-23 22:58:00,SystemResetWarning,0821.0,5.01,000.00,028.3,027.3,000.0,036.6,030.2,13.8,0000.0,0015.12,0005.53,0004.35
2023-10-23 22:59:00,SystemResetWarning,0821.3,4.99,000.00,028.4,026.8,000.0,036.6,030.2,13.9,0000.0,0015.10,0005.54,0004.36
